This demonstration page uses our WeatherBlox Daily Observations layout. Learn more.

Left ArrowRight Arrow

39.12711, -84.51439

Hourly Observations for June 19, 2019

Temp ( °F °C ) Dew Point ( °F °C ) Humidity (%) Winds ( mph kmh ) Pressure ( in mb ) Visibility ( mi km ) Precip ( " mm )
12:25 am 00:25 Partly Cloudy with Mist and Fog 70 21.1 69 20.6 97 97 Calm 29.85 1011 3 4 0.00 0.03
12:39 am 00:39 Mostly Cloudy with Mist and Fog 70 21.1 70 21.1 100 100 Calm 29.85 1011 1 2 0.00 0.03
12:53 am 00:53 Mostly Cloudy with Fog 69 20.6 69 20.6 100 100 Calm 29.85 1011 1 1 0.00 0.03
1:11 am 01:11 Cloudy with Mist and Fog 70 21.1 69 20.6 97 97 Calm 29.85 1011 2 3 0.00 0.00
1:18 am 01:18 Cloudy with Mist and Fog 69 20.6 69 20.6 100 100 Calm 29.84 1010 1 1 0.00 0.00
1:27 am 01:27 Cloudy with Fog 69 20.6 69 20.6 100 100 Calm 29.84 1010 1 1 0.00 0.00
1:49 am 01:49 Mostly Cloudy with Fog 70 21 68 20 94 94 Calm 29.83 1010 0 0 0.00 0.00
1:53 am 01:53 Mostly Cloudy with Fog 68 20 68 20 100 100 Calm 29.83 1010 0 0 0.00 0.00
2:53 am 02:53 Mostly Cloudy with Fog 69 20.6 69 20.6 100 100 Calm 29.82 1010 0 0 0.00 0.00
3:53 am 03:53 Mostly Cloudy with Fog 69 20.6 69 20.6 100 100 Calm 29.80 1009 0 0 0.00 0.00
4:53 am 04:53 Mostly Cloudy with Fog 68 20 68 20 100 100 Calm 29.80 1009 0 0 0.00 0.00
5:29 am 05:29 Mostly Cloudy with Fog 68 20 68 20 100 100 SW 3 6 29.81 1009 0 0 0.00 0.00
5:37 am 05:37 Mostly Cloudy with Fog 68 20 68 20 100 100 Calm 29.81 1009 1 1 0.00 0.00
5:53 am 05:53 Mostly Cloudy with Mist and Fog 68 20 68 20 100 100 S 3 6 29.80 1009 1 1 0.00 0.00
6:24 am 06:24 Mostly Cloudy with Fog 68 20 67 19.4 96 96 Calm 29.80 1009 1 1 0.00 0.00
6:53 am 06:53 Mostly Cloudy with Fog 68 20 68 20 100 100 Calm 29.80 1009 1 1 0.00 0.00
7:53 am 07:53 Mostly Cloudy with Fog 69 20.6 69 20.6 100 100 Calm 29.80 1009 1 1 0.00 0.00
8:09 am 08:09 Cloudy with Mist and Fog 70 21.1 69 20.6 97 97 Calm 29.80 1009 2 2 0.00 0.00
8:23 am 08:23 Cloudy with Mist and Fog 70 21.1 69 20.6 97 97 Calm 29.80 1009 3 5 0.00 0.00
8:53 am 08:53 Cloudy with Mist and Fog 71 21.7 70 21.1 96 96 Calm 29.80 1009 3 5 0.00 0.00
9:32 am 09:32 Cloudy with Mist and Fog 72 22.2 71 21.7 97 97 SW 5 7 29.79 1009 6 10 0.00 0.00
9:53 am 09:53 Mostly Cloudy 73 22.8 71 21.7 94 94 Calm 29.79 1009 10 16 0.00 0.00
10:26 am 10:26 Partly Cloudy 77 25 70 21.1 79 79 Calm 29.77 1008 10 16 0.00 0.00
10:53 am 10:53 Mostly Cloudy 77 25 71 21.7 82 82 SSW 5 7 29.78 1008 10 16 0.00 0.00
11:53 am 11:53 Cloudy with Light Rain 75 23.9 70 21.1 84 84 Calm 29.78 1008 8 13 0.16 4.06
12:53 pm 12:53 Mostly Cloudy 74 23.3 72 22.2 94 94 NNE 3 6 29.76 1008 8 13 0.07 1.78
1:53 pm 13:53 Mostly Cloudy 77 25 74 23.3 90 90 ENE 3 6 29.73 1007 8 13 0.05 1.27
2:53 pm 14:53 Mostly Cloudy 82 27.8 73 22.8 74 74 SE 8 13 29.70 1006 10 16 0.00 0.00
3:53 pm 15:53 Mostly Cloudy 82 27.8 72 22.2 72 72 S 8 13 29.67 1005 10 16 0.00 0.00
4:53 pm 16:53 Partly Cloudy 82 27.8 70 21.1 67 67 SSW 10 17 29.65 1004 10 16 0.00 0.00
5:53 pm 17:53 Sunny 81 27.2 73 22.8 77 77 S 5 7 29.63 1004 10 16 0.00 0.00
6:07 pm 18:07 Partly Cloudy with Thunderstorms 81 27.2 72 22.2 74 74 S 12 19 29.62 1003 7 11 0.00 0.03
6:42 pm 18:42 Cloudy with Thunderstorms 75 23.9 70 21.1 84 84 NW 12 19 29.64 1004 7 11 0.01 0.25
6:50 pm 18:50 Cloudy with Strong Thunderstorms 72 22 70 21 94 94 WSW 21 33 29.69 1005 1 1 0.23 5.84
6:53 pm 18:53 Cloudy with Strong Thunderstorms 70 21.1 69 20.6 97 97 WSW 20 31 29.70 1006 1 2 0.39 9.91
7:06 pm 19:06 Cloudy with Thunderstorms 70 21.1 69 20.6 97 97 VRB 6 9 29.68 1005 3 5 0.26 6.60
7:53 pm 19:53 Cloudy with Thunderstorms 70 21.1 68 20 93 93 SSW 6 9 29.69 1006 4 6 0.36 9.14
8:26 pm 20:26 Cloudy with Light Rain 70 21.1 69 20.6 97 97 ESE 6 9 29.67 1005 4 6 0.11 2.79
8:53 pm 20:53 Mostly Cloudy with Light Rain 70 21.1 69 20.6 97 97 VRB 5 7 29.66 1004 6 10 0.14 3.56
9:41 pm 21:41 Partly Cloudy with Mist and Fog 69 20.6 69 20.6 100 100 SSW 5 7 29.66 1004 6 10 0.00 0.03
9:53 pm 21:53 Mostly Clear with Mist and Fog 69 20.6 69 20.6 100 100 SSW 5 7 29.65 1004 5 8 0.00 0.03
10:53 pm 22:53 Mostly Cloudy 69 20.6 68 20 96 96 S 5 7 29.65 1004 7 11 0.00 0.00
11:53 pm 23:53 Cloudy with Light Rain 69 20.6 68 20 96 96 S 5 7 29.65 1004 7 11 0.01 0.25

Powered by AerisWeather